Weather Roundup
Issued by NWS Chicago, IL

Home | Current Version | Previous Version | Graphics & Text | Print | Product List | Glossary On
Versions: 1 2 3 4 5 6 7 8 9 10 11 12 13 14 15 16 17 18 19 20 21 22 23 24 25 26 27 28 29 30 31 32 33 34 35 36 37 38 39 40 41 42 43 44 45 46 47 48 49 50
000
NZUS59 KLOT 190010
HRRLOT

CHICAGO AREA WEATHER ROUNDUP
NATIONAL WEATHER SERVICE CHICAGO/ROMEOVILLE IL
700 PM CDT FRI APR 18 2014

NOTE: "FAIR" INDICATES FEW OR NO CLOUDS BELOW 12,000 FEET WITH NO
SIGNIFICANT WEATHER AND/OR OBSTRUCTIONS TO VISIBILITY.

* THESE STATIONS ARE NOT UNDER NWS QUALITY CONTROL. THEY ALSO MAY NOT
  REPORT WEATHER SUCH AS PRECIPITATION OR FOG.

ILZ005-006-012>014-019>023-190100-
NORTHEAST ILLINOIS

CITY           SKY/WX    TMP DP  RH WIND       PRES   REMARKS
OHARE          CLEAR     42  29  59 NE15      30.33F
6HR MIN TEMP:  42; 6HR MAX TEMP:  51;

MIDWAY         CLEAR     43  33  68 NE10      30.33F
6HR MIN TEMP:  43; 6HR MAX TEMP:  51;

AURORA         CLEAR     52  35  52 NE15      30.29S
6HR MIN TEMP:  52; 6HR MAX TEMP:  63;

LANSING*       CLEAR     40  32  74 NE13G20   30.33S
JOLIET*        CLEAR     49  35  57 NE13      30.30S
WAUKEGAN       CLEAR     36  29  75 N10       30.35F
6HR MIN TEMP:  36; 6HR MAX TEMP:  44;

DUPAGE AIRPORT CLEAR     46  33  60 NE14      30.31R
6HR MIN TEMP:  46; 6HR MAX TEMP:  60;

WHEELING       CLEAR     40  30  67 NE9       30.36F
6HR MIN TEMP:  40; 6HR MAX TEMP:  47;

KANKAKEE*      CLEAR     50  38  63 NE14      30.30R
MORRIS*        CLEAR     53  32  44 E8        30.28S
LEWIS AIRPORT* CLEAR     46  33  59 E13G20    30.30S
NORTHERLY IS     N/A     38  33  82 N16         N/A
$$

WIZ051-052-058>065-066-070>072-190100-
SOUTHEAST WISCONSIN

CITY           SKY/WX    TMP DP  RH WIND       PRES   REMARKS
MILWAUKEE      PTCLDY    36  27  69 NE13      30.39S
6HR MIN TEMP:  36; 6HR MAX TEMP:  43;

KENOSHA*       CLEAR     38  29  70 E12       30.37R
RACINE*        CLEAR     36  28  73 NE14      30.39S
BURLINGTON     CLEAR     39  31  71 E10       30.36R
WAUKESHA       CLEAR     39  28  65 NE12      30.37R
WEST BEND      CLEAR     37  27  65 E7        30.38R
$$

INZ001>003-010>013-019-020-190100-
NORTHWEST INDIANA

CITY           SKY/WX    TMP DP  RH WIND       PRES   REMARKS
GARY*          CLEAR     41  32  70 NE10      30.35S
MICHIGAN CITY* NOT AVBL
RENSSELAER*    NOT AVBL
VALPARAISO     CLEAR     42  32  67 N13       30.32S
$$

LMZ740>746-190100-
SOUTHERN LAKE MICHIGAN

STATION/POSITION TIME  SKY/WX   TEMP WIND        PRES    VSBY
                                AIR  DIR/SP/G
                 (UTC)          (F)  (DEG/KT/KT) (MB)    (MI)
HARRISON CRIB    0000            37   30/ 18/ 20   N/A
BURNHAM HARBOR   0000            39   20/ 11/ 15   N/A
CALUMET HARBOR   0000            38   20/ 12/ 16 1028.3S
BURNS HARBOR     NOT AVBL
MICHIGAN CITY    0000            38   20/ 17/ 20   N/A
$$

ABBREVIATIONS USED IN REMARKS
   TC - TEMPERATURE IN CELSIUS
  WCI - WIND CHILL INDEX
   HX - HEAT INDEX
  VSB - VISIBILITY
$$



USA.gov is the U.S. government's official web portal to all federal, state and local government web resources and services.